FW8254 Weather Reports


time (UTC)temp
C
wind
direction
speed
KPH
gust
KPH
rain 1hr
cm
rain 24hr
cm
rain mn
cm
humidity
%
barometer
mb
20260508073443 15 58 0.0 0.0 0.00 0.00 0.00 83 1009.9
20260508072940 15 58 0.0 0.0 0.00 0.00 0.00 83 1009.8
20260508072436 15 58 0.0 0.0 0.00 0.00 0.00 83 1009.8
20260508071933 15 58 0.0 0.0 0.00 0.00 0.00 82 1009.8
20260508071431 15 58 0.0 0.0 0.00 0.00 0.00 82 1009.8
20260508070929 15 58 0.0 1.6 0.00 0.00 0.00 82 1009.4
20260508070426 15 58 0.0 0.0 0.00 0.00 0.00 82 1009.5
20260508065924 16 58 0.0 0.0 0.00 0.00 0.00 81 1009.7
20260508065422 16 58 0.0 0.0 0.00 0.00 0.00 81 1009.1
20260508064920 16 63 0.0 0.0 0.00 0.00 0.00 81 1009.2
20260508064417 16 63 0.0 1.6 0.00 0.00 0.00 81 1009.3
20260508063914 16 67 0.0 0.0 0.00 0.00 0.00 80 1009.4
20260508063412 16 67 0.0 0.0 0.00 0.00 0.00 80 1009.3
20260508062909 16 67 0.0 1.6 0.00 0.00 0.00 80 1009.5
20260508062407 16 67 0.0 0.0 0.00 0.00 0.00 79 1009.5
20260508061904 16 67 0.0 1.6 0.00 0.00 0.00 79 1009.3
20260508061401 16 67 1.6 3.2 0.00 0.00 0.00 79 1009.5
20260508060857 16 67 0.0 1.6 0.00 0.00 0.00 79 1009.3
20260508060355 16 69 1.6 1.6 0.00 0.00 0.00 79 1009.5
20260508055850 16 67 0.0 1.6 0.00 0.00 0.00 79 1009.7
20260508055348 16 67 1.6 3.2 0.00 0.00 0.00 78 1009.8
20260508054844 16 69 1.6 3.2 0.00 0.00 0.00 79 1009.5
20260508054341 17 68 3.2 3.2 0.00 0.00 0.00 79 1009.3
20260508053838 17 70 1.6 1.6 0.00 0.00 0.00 78 1009.7
20260508053336 17 70 1.6 3.2 0.00 0.00 0.00 78 1009.6
20260508052833 17 63 1.6 3.2 0.00 0.00 0.00 79 1009.5
20260508052331 17 76 3.2 4.8 0.00 0.00 0.00 79 1009.4
20260508051826 17 67 1.6 3.2 0.00 0.00 0.00 80 1009.4
20260508051322 17 68 1.6 3.2 0.00 0.00 0.00 80 1009.4
20260508050818 17 64 0.0 1.6 0.00 0.00 0.00 80 1009.3
20260508050315 17 63 0.0 1.6 0.00 0.00 0.00 79 1009.2
20260508045811 18 58 0.0 1.6 0.00 0.00 0.00 79 1009.2
20260508045309 18 58 0.0 0.0 0.00 0.00 0.00 79 1009.3
20260508044807 18 58 1.6 1.6 0.00 0.00 0.00 78 1009.3
20260508044303 18 57 0.0 1.6 0.00 0.00 0.00 78 1009.1
20260508043759 18 57 0.0 0.0 0.00 0.00 0.00 77 1009.2
20260508043256 18 57 0.0 0.0 0.00 0.00 0.00 77 1009.0
20260508042753 18 58 1.6 1.6 0.00 0.00 0.00 76 1008.9
20260508042251 18 57 0.0 1.6 0.00 0.00 0.00 76 1008.7
20260508041747 18 57 0.0 1.6 0.00 0.00 0.00 75 1008.8
20260508041244 18 67 1.6 3.2 0.00 0.00 0.00 76 1008.7
20260508040740 18 55 0.0 1.6 0.00 0.00 0.00 75 1008.7
20260508040237 18 54 1.6 1.6 0.00 0.00 0.00 75 1009.0
20260508035735 18 52 0.0 1.6 0.00 3.96 3.96 76 1008.5
20260508035232 18 52 1.6 1.6 0.00 3.96 3.96 77 1008.7
20260508034729 18 44 0.0 1.6 0.00 3.96 3.96 77 1008.7
20260508034226 18 42 0.0 0.0 0.00 3.96 3.96 77 1008.8
20260508033723 18 42 0.0 0.0 0.00 3.96 3.96 76 1008.6
20260508033221 19 43 0.0 0.0 0.00 3.96 3.96 75 1008.7
20260508032719 19 42 0.0 0.0 0.00 3.96 3.96 74 1008.7
20260508032216 20 28 1.6 4.8 0.00 3.96 3.96 75 1008.5
20260508031712 20 304 4.8 9.7 0.00 3.96 3.96 73 1008.4
20260508031208 20 303 6.4 8.0 0.00 3.96 3.96 73 1008.3
20260508030705 20 293 6.4 11.3 0.00 3.96 3.96 72 1008.5
20260508030203 20 308 6.4 9.7 0.00 3.96 3.96 72 1008.4
20260508025658 20 284 6.4 11.3 0.00 3.96 3.96 72 1008.1
20260508025156 20 293 6.4 11.3 0.00 3.96 3.96 72 1008.1
20260508024652 20 288 8.0 12.9 0.00 3.96 3.96 72 1008.0
20260508024149 20 321 8.0 14.5 0.00 3.96 3.96 72 1008.2
20260508023645 20 293 9.7 12.9 0.00 3.96 3.96 74 1008.0
20260508023143 21 290 8.0 17.7 0.00 3.96 3.96 72 1007.8
20260508022638 20 271 14.5 16.1 0.00 3.96 3.96 72 1008.0
20260508022136 21 324 8.0 14.5 0.00 3.96 3.96 73 1007.9
20260508021632 21 287 8.0 14.5 0.00 3.96 3.96 74 1007.7
20260508021127 21 290 12.9 12.9 0.00 3.96 3.96 73 1007.7
20260508020626 21 327 8.0 14.5 0.00 3.96 3.96 72 1007.2
20260508020123 21 300 11.3 12.9 0.00 3.96 3.96 72 1007.2
20260508015620 21 287 11.3 16.1 0.00 3.96 3.96 72 1007.2
20260508015116 21 282 9.7 14.5 0.00 3.96 3.96 72 1006.9
20260508014613 21 290 8.0 14.5 0.00 3.96 3.96 71 1006.7
20260508014110 21 273 11.3 12.9 0.00 3.96 3.96 72 1006.8
20260508013606 21 298 8.0 11.3 0.00 3.96 3.96 72 1006.7
20260508013103 21 310 8.0 12.9 0.00 3.96 3.96 73 1006.5
20260508012601 21 286 9.7 12.9 0.00 3.96 3.96 72 1006.6
20260508012057 21 284 8.0 14.5 0.00 3.96 3.96 73 1006.4
20260508011556 21 293 6.4 8.0 0.00 3.96 3.96 73 1006.2
20260508011053 21 340 4.8 8.0 0.00 3.96 3.96 73 1006.0
20260508010549 21 296 6.4 9.7 0.00 3.96 3.96 72 1006.0
20260508010047 22 304 8.0 8.0 0.00 3.96 3.96 72 1005.7
20260508005543 22 307 6.4 9.7 0.00 3.96 3.96 70 1005.9
20260508005040 22 293 8.0 9.7 0.00 3.96 3.96 70 1005.7
20260508004536 22 294 8.0 9.7 0.00 3.96 3.96 69 1005.6
20260508004033 22 282 8.0 11.3 0.00 3.96 3.96 69 1005.4
20260508003530 22 281 8.0 11.3 0.00 3.96 3.96 68 1005.3
20260508003027 22 291 8.0 14.5 0.00 3.96 3.96 69 1005.2
20260508002523 22 296 11.3 12.9 0.00 3.96 3.96 68 1005.3
20260508002021 22 284 8.0 11.3 0.00 3.96 3.96 67 1005.1
20260508001516 23 283 11.3 11.3 0.00 3.96 3.96 67 1005.1
20260508001013 23 284 12.9 14.5 0.00 3.96 3.96 66 1004.9
20260508000509 23 311 17.7 20.9 0.00 3.96 3.96 64 1004.8
20260508000006 23 281 11.3 16.1 0.00 3.96 3.96 66 1004.7
20260507235503 23 284 12.9 16.1 0.00 3.96 3.96 65 1004.6
20260507235000 23 262 11.3 17.7 0.00 3.96 3.96 65 1004.4
20260507234456 23 286 12.9 16.1 0.00 3.96 3.96 65 1004.4
20260507233953 23 294 11.3 17.7 0.00 3.96 3.96 65 1004.2
20260507233450 23 288 12.9 20.9 0.00 3.96 3.96 65 1004.2
20260507232948 24 287 11.3 17.7 0.00 3.96 3.96 66 1004.3
20260507232444 24 278 14.5 17.7 0.00 3.96 3.96 64 1004.1
20260507231942 24 284 14.5 17.7 0.00 3.96 3.96 65 1004.2
20260507231438 24 277 17.7 24.1 0.00 3.96 3.96 63 1004.3
20260507230935 24 287 17.7 24.1 0.00 3.96 3.96 63 1004.2
20260507230432 25 295 19.3 24.1 0.00 3.96 3.96 64 1004.2
20260507225932 25 284 12.9 25.7 0.00 3.96 3.96 63 1004.0
20260507225428 25 284 14.5 20.9 0.00 3.96 3.96 64 1004.1
20260507224925 25 282 9.7 17.7 0.00 3.96 3.96 63 1004.0
20260507224421 25 284 17.7 24.1 0.00 3.96 3.96 63 1003.9
20260507223918 25 284 12.9 32.2 0.00 3.96 3.96 64 1003.9
20260507223414 25 269 20.9 33.8 0.00 3.96 3.96 65 1003.9
20260507222911 25 224 17.7 22.5 0.00 3.96 3.96 66 1004.0
20260507222408 25 263 22.5 32.2 0.00 3.96 3.96 64 1004.0
20260507221905 25 227 16.1 25.7 0.00 3.96 3.96 65 1004.0
20260507221401 25 286 20.9 27.4 0.00 3.96 3.96 65 1003.6
20260507220857 25 262 11.3 22.5 0.00 3.96 3.96 65 1003.8
20260507220355 25 277 16.1 22.5 0.00 3.96 3.96 67 1003.6
20260507215851 25 271 11.3 24.1 0.00 3.96 3.96 65 1003.9
20260507215348 25 232 14.5 22.5 0.00 3.96 3.96 68 1003.8
20260507214845 25 254 12.9 14.5 0.00 3.96 3.96 68 1003.6
20260507214343 25 286 11.3 14.5 0.00 3.96 3.96 70 1003.7
20260507213838 25 280 12.9 12.9 0.00 3.96 3.96 68 1003.8
20260507213335 25 288 12.9 14.5 0.00 3.96 3.96 69 1003.5
20260507212831 25 291 16.1 22.5 0.00 3.96 3.96 68 1003.6
20260507212327 25 281 16.1 17.7 0.00 3.96 3.96 69 1003.7
20260507211824 25 276 11.3 22.5 0.00 3.96 3.96 69 1003.6
20260507211321 25 246 14.5 22.5 0.00 3.96 3.96 69 1003.7
20260507210818 25 277 12.9 14.5 0.00 3.96 3.96 70 1003.5
20260507210315 25 238 11.3 14.5 0.00 3.96 3.96 69 1003.8
20260507205811 25 248 12.9 22.5 0.00 3.96 3.96 70 1003.6
20260507205308 25 279 8.0 9.7 0.00 3.96 3.96 70 1003.5
20260507204804 25 251 9.7 20.9 0.00 3.96 3.96 69 1003.6
20260507204302 25 303 9.7 14.5 0.00 3.96 3.96 69 1003.6
20260507203800 25 280 14.5 17.7 0.00 3.96 3.96 68 1003.7
20260507203258 25 296 8.0 16.1 0.00 3.96 3.96 68 1003.6
20260507202753 24 294 8.0 17.7 0.00 3.96 3.96 68 1003.8
20260507202249 24 284 9.7 14.5 0.00 3.96 3.96 70 1003.9
20260507201744 24 282 14.5 20.9 0.00 3.96 3.96 69 1004.3
20260507201241 24 284 22.5 32.2 0.00 3.96 3.96 70 1004.4
20260507200737 24 281 16.1 24.1 0.00 3.96 3.96 68 1004.4
20260507200228 24 283 16.1 17.7 0.00 3.96 3.96 68 1004.4
20260507195724 24 264 16.1 25.7 0.00 3.96 3.96 70 1004.3
20260507195221 23 275 22.5 29.0 0.00 3.96 3.96 71 1004.3
20260507194719 23 289 16.1 17.7 0.00 3.96 3.96 72 1004.3
20260507194215 23 286 14.5 24.1 0.00 3.96 3.96 72 1004.4
20260507193712 23 273 16.1 27.4 0.00 3.96 3.96 73 1004.3
20260507193208 23 296 11.3 20.9 0.00 3.96 3.96 74 1004.2
20260507192704 23 289 12.9 17.7 0.00 3.96 3.96 74 1004.7
20260507192202 23 277 12.9 17.7 0.00 3.96 3.96 75 1004.5
20260507191657 23 277 12.9 22.5 0.00 3.96 3.96 75 1004.5
20260507191154 23 295 17.7 20.9 0.00 3.96 3.96 76 1004.3
20260507190651 23 277 11.3 24.1 0.00 3.96 3.96 77 1004.2
20260507190150 23 297 12.9 16.1 0.00 3.96 3.96 78 1004.4
20260507185648 23 278 16.1 25.7 0.00 3.96 3.96 77 1004.4
20260507185144 22 317 8.0 14.5 0.00 3.96 3.96 78 1004.3
20260507184642 22 287 12.9 14.5 0.00 3.96 3.96 81 1004.6
20260507184140 22 279 11.3 12.9 0.00 3.96 3.96 79 1004.0
20260507183636 22 289 12.9 17.7 0.00 3.96 3.96 81 1004.2
20260507183133 22 287 9.7 14.5 0.00 3.96 3.96 83 1004.3
20260507182629 22 282 9.7 11.3 0.00 3.96 3.96 83 1004.2
20260507182126 22 294 11.3 11.3 0.00 3.96 3.96 83 1004.2
20260507181622 22 285 4.8 9.7 0.00 3.96 3.96 85 1004.5
20260507181118 21 281 11.3 25.7 0.00 3.96 3.96 85 1004.8
20260507180615 21 286 11.3 20.9 0.00 3.96 3.96 85 1004.7
20260507180112 21 270 16.1 16.1 0.00 3.96 3.96 86 1004.8
20260507175608 21 285 14.5 17.7 0.00 3.96 3.96 87 1004.9
20260507175106 21 296 8.0 9.7 0.00 3.96 3.96 88 1004.7
20260507174602 21 296 12.9 14.5 0.00 3.96 3.96 87 1004.8
20260507174100 21 285 11.3 16.1 0.00 3.96 3.96 88 1004.4
20260507173557 21 314 6.4 8.0 0.00 3.96 3.96 90 1004.2
20260507173054 20 298 8.0 9.7 0.00 3.96 3.96 92 1004.1
20260507172550 20 308 8.0 9.7 0.00 3.96 3.96 94 1004.5
20260507172047 20 316 6.4 9.7 0.00 3.96 3.96 95 1004.5
20260507171542 20 325 4.8 4.8 0.00 3.96 3.96 96 1004.5
20260507171040 20 296 8.0 11.3 0.00 3.96 3.96 96 1004.7
20260507170536 20 1 3.2 4.8 0.00 3.96 3.96 97 1004.9
20260507170034 20 19 1.6 1.6 0.00 3.96 3.96 97 1004.7
20260507165529 20 325 4.8 8.0 0.00 3.96 3.96 97 1004.9
20260507165026 20 34 1.6 4.8 0.00 3.96 3.96 97 1004.9
20260507164522 20 308 6.4 9.7 0.00 3.96 3.96 97 1005.1
20260507164019 20 357 6.4 9.7 0.00 3.96 3.96 97 1005.4
20260507163516 20 321 4.8 8.0 0.00 3.96 3.96 97 1005.5
20260507163015 20 345 4.8 9.7 0.00 3.96 3.96 98 1005.5
20260507162509 20 335 4.8 9.7 0.00 3.96 3.96 98 1005.2
20260507162006 20 3 3.2 4.8 0.00 3.96 3.96 98 1005.3
20260507161502 20 24 1.6 3.2 0.00 3.96 3.96 98 1005.4
20260507160959 20 300 4.8 4.8 0.00 3.96 3.96 98 1005.5
20260507160455 20 14 0.0 1.6 0.00 3.96 3.96 98 1005.3
20260507155951 19 29 1.6 1.6 0.13 3.96 3.96 98 1005.6
20260507155447 19 27 0.0 1.6 0.18 3.94 3.94 98 1005.7
20260507154944 19 35 1.6 1.6 0.18 3.94 3.94 98 1005.8
20260507154441 19 43 0.0 0.0 0.00 3.91 3.91 98 1005.5
20260507153938 19 5 3.2 4.8 0.00 3.91 3.91 98 1005.9
20260507153435 19 17 1.6 1.6 0.00 3.91 3.91 98 1005.7
20260507152931 19 39 0.0 0.0 0.00 3.91 3.91 98 1005.1
20260507152427 19 46 0.0 1.6 0.00 3.91 3.91 98 1004.7
20260507151923 19 44 0.0 1.6 0.00 3.91 3.91 98 1004.8
20260507151420 18 50 0.0 1.6 0.00 3.91 3.91 98 1005.1
20260507150917 18 44 0.0 0.0 0.00 3.91 3.91 98 1005.5
20260507150414 18 45 0.0 0.0 0.00 3.91 3.91 98 1005.5
20260507145910 18 45 0.0 0.0 0.00 3.91 3.91 98 1005.5
20260507145406 18 45 0.0 0.0 0.13 3.91 3.91 98 1005.6
20260507144903 18 50 0.0 1.6 0.00 3.89 3.89 98 1005.5
20260507144400 18 50 0.0 1.6 0.18 3.89 3.89 98 1005.4
20260507143857 18 48 0.0 0.0 0.18 3.89 3.89 98 1005.5
20260507143354 18 37 0.0 0.0 0.00 3.86 3.86 98 1006.1
20260507142851 18 44 0.0 1.6 0.43 3.86 3.86 97 1006.1
20260507142347 18 40 1.6 3.2 1.27 3.84 3.84 97 1006.3
20260507141844 18 72 4.8 4.8 2.29 3.76 3.76 97 1006.4
20260507141340 19 26 1.6 3.2 4.14 3.61 3.61 98 1006.0
20260507140837 19 32 1.6 3.2 4.85 3.33 3.33 98 1006.1
20260507140334 19 29 1.6 1.6 3.35 2.84 2.84 98 1006.0
20260507135832 19 31 0.0 1.6 3.17 2.46 2.46 97 1005.5
20260507135328 19 33 0.0 0.0 2.29 2.21 2.21 98 1005.5
20260507134826 19 21 0.0 1.6 0.79 1.93 1.93 97 1005.5
20260507134321 19 25 1.6 1.6 0.18 1.83 1.83 98 1005.5
20260507133817 19 25 1.6 3.2 0.00 1.80 1.80 97 1005.4
20260507133313 19 303 4.8 9.7 0.00 1.80 1.80 98 1005.5
20260507132812 19 324 4.8 4.8 0.00 1.80 1.80 98 1005.2
20260507132308 19 26 0.0 3.2 0.00 1.80 1.80 98 1005.3
20260507131805 19 49 0.0 1.6 0.00 1.80 1.80 98 1005.1
20260507131302 19 48 0.0 0.0 0.00 1.80 1.80 97 1005.6
20260507130758 19 49 1.6 1.6 1.98 1.80 1.80 97 1005.3
20260507130256 19 45 0.0 0.0 1.98 1.80 1.80 97 1005.5
20260507125755 19 45 0.0 0.0 0.00 1.47 1.47 97 1005.4
20260507125252 19 45 0.0 0.0 0.13 1.47 1.47 97 1005.5
20260507124749 19 45 0.0 0.0 0.30 1.47 1.47 97 1005.7
20260507124245 19 44 0.0 0.0 0.18 1.45 1.45 97 1006.0
20260507123744 19 45 0.0 0.0 0.00 1.42 1.42 97 1005.7
20260507123241 19 45 0.0 0.0 0.00 1.42 1.42 97 1005.7
20260507122736 19 44 0.0 0.0 0.00 1.42 1.42 97 1005.6
20260507122232 19 44 0.0 0.0 0.00 1.42 1.42 97 1005.7
20260507121728 19 44 0.0 1.6 0.00 1.42 1.42 97 1004.9
20260507121224 19 40 0.0 0.0 0.00 1.42 1.42 97 1005.0
20260507120720 19 40 0.0 0.0 0.00 1.42 1.42 97 1004.9
20260507120218 19 40 0.0 0.0 0.00 1.42 1.42 97 1004.9
20260507115714 19 40 0.0 0.0 0.00 1.42 1.42 97 1004.8
20260507115209 18 39 0.0 0.0 0.00 1.42 1.42 97 1004.9
20260507114705 18 40 0.0 0.0 0.00 1.42 1.42 97 1005.0
20260507114203 18 44 0.0 0.0 0.00 1.42 1.42 97 1004.9
20260507113700 18 33 0.0 1.6 0.00 1.42 1.42 97 1005.1
20260507113157 18 34 0.0 0.0 0.13 1.42 1.42 97 1004.7
20260507112655 18 54 0.0 1.6 0.13 1.42 1.42 97 1004.7
20260507112151 18 47 0.0 1.6 0.00 1.40 1.40 97 1005.2
20260507111649 18 347 3.2 4.8 0.00 1.40 1.40 97 1005.4
20260507111145 18 37 0.0 1.6 0.18 1.40 1.40 97 1005.8
20260507110641 18 37 1.6 3.2 0.30 1.40 1.40 97 1006.0
20260507110138 19 1 3.2 4.8 0.13 1.37 1.37 97 1006.1
20260507105635 19 291 6.4 9.7 0.61 1.35 1.35 97 1006.2
20260507105131 19 299 4.8 4.8 1.07 1.35 1.35 97 1006.0
20260507104629 19 10 1.6 3.2 1.19 1.22 1.22 97 1006.1
20260507104125 19 300 8.0 9.7 2.29 1.17 1.17 97 1006.8
20260507103621 19 299 6.4 12.9 1.68 1.02 1.02 97 1006.8
20260507103118 19 50 3.2 4.8 0.71 0.76 0.76 97 1006.5
20260507102614 19 318 3.2 4.8 1.27 0.74 0.74 97 1006.5
20260507102110 19 59 1.6 1.6 0.89 0.61 0.61 97 1006.5
20260507101607 19 23 3.2 4.8 0.61 0.51 0.51 97 1006.4
20260507101102 19 30 0.0 0.0 0.79 0.46 0.46 97 1006.3
20260507100600 19 35 0.0 0.0 0.43 0.38 0.38 97 1006.4
20260507100058 19 41 0.0 0.0 0.00 0.30 0.30 97 1006.0
20260507095556 19 41 0.0 0.0 0.00 0.30 0.30 97 1006.1
20260507095052 19 41 0.0 0.0 0.00 0.30 0.30 97 1006.3
20260507094548 19 41 0.0 0.0 0.00 0.30 0.30 97 1006.3
20260507094046 19 40 0.0 0.0 0.00 0.30 0.30 97 1006.3
20260507093543 19 41 0.0 0.0 0.00 0.30 0.30 97 1006.0
20260507093042 18 40 0.0 0.0 0.00 0.30 0.30 97 1006.2
20260507092537 19 40 0.0 0.0 0.00 0.30 0.30 97 1006.5
20260507092034 19 40 0.0 0.0 0.00 0.30 0.30 97 1006.8
20260507091531 19 40 0.0 0.0 0.00 0.30 0.30 97 1006.7
20260507091027 18 30 0.0 0.0 0.00 0.30 0.30 97 1006.7
20260507090523 19 30 0.0 0.0 0.18 0.30 0.30 97 1006.5
20260507090020 19 30 0.0 0.0 0.18 0.30 0.30 97 1006.5
20260507085517 19 28 0.0 1.6 0.00 0.28 0.28 97 1006.7
20260507085014 19 25 1.6 1.6 0.00 0.28 0.28 97 1006.9
20260507084510 19 12 1.6 3.2 0.00 0.28 0.28 97 1006.8
20260507084008 19 16 3.2 3.2 0.00 0.28 0.28 97 1006.8
20260507083504 19 21 1.6 3.2 0.18 0.28 0.28 97 1006.5
20260507083001 19 328 4.8 4.8 0.00 0.25 0.25 97 1006.7
20260507082457 19 15 1.6 3.2 0.00 0.25 0.25 97 1006.4
20260507081953 19 8 1.6 3.2 0.00 0.25 0.25 97 1006.5
20260507081449 19 12 3.2 3.2 0.00 0.25 0.25 97 1006.4
20260507080947 19 353 3.2 3.2 0.00 0.25 0.25 97 1006.3
20260507080443 19 16 1.6 1.6 0.00 0.25 0.25 97 1006.2
20260507075938 19 351 3.2 3.2 0.00 0.25 0.25 97 1006.4
20260507075435 19 33 0.0 3.2 0.00 0.25 0.25 97 1006.4
20260507074931 19 32 1.6 3.2 0.00 0.25 0.25 97 1006.6
20260507074428 19 339 3.2 4.8 0.00 0.25 0.25 97 1006.5
20260507073926 18 9 1.6 3.2 0.00 0.25 0.25 97 1006.6